Weather History for KRCE - January, 2013

Change the Weather History Date:

Tuesday, January 22, 2013

  Actual Average (KOKC) Record (KOKC)
Temperature  
Mean Temperature 39 °F 40 °F  
Max Temperature 55 °F 50 °F 79 °F (1967)
Min Temperature 23 °F 29 °F -8 °F (1930)
Degree Days  
Heating Degree Days 26 26  
Month to date heating degree days 572  
Since 1 July heating degree days 1927  
Moisture  
Dew Point 23 °F    
Average Humidity 58    
Maximum Humidity 75    
Minimum Humidity 33    
Precipitation  
Precipitation 0.00 in 0.05 in 0.39 in (1920)
Month to date precipitation 0.93  
Year to date precipitation 0.93  
Snow  
Snow 0.00 in 0.00 in 4.00 in (1995)
Month to date snowfall 1.9  
Since 1 July snowfall 4.4  
Snow Depth -    
Sea Level Pressure  
Sea Level Pressure 30.22 in    
Wind  
Wind Speed 8 mph (South)    
Max Wind Speed 15 mph    
Max Gust Speed 22 mph    
Visibility 10 miles    
Events      
T = Trace of Precipitation, MM = Missing Value Source: NWS Daily Summary

Daily Weather History Graph

Daily Weather History Graph

Search for Another Location

Airport or City:

Trip Planner

Search our weather history database for the weather conditions in past years. The results will help you decide how hot, cold, wet, or windy it might be!

Date:

Astronomy

Jan. 22, 2013 Rise Set
Actual Time 7:37 AM CST 5:49 PM CST
Civil Twilight 7:09 AM CST 6:16 PM CST
Nautical Twilight 6:38 AM CST 6:47 PM CST
Astronomical Twilight 6:08 AM CST 7:17 PM CST
Moon 2:14 PM CST (1/22) 3:58 AM CST (1/22)
Length of Visible Light 11h 06m
Length of Day
10h 12m
Waxing Gibbous, 83% of the Moon is Illuminated
Jan 22
Waxing Gibbous
Jan 26
Full
Feb 3
Last Quarter
Feb 10
New
Feb 17
First Quarter

Hourly Weather History & Observations

Time (CST) Temp. Windchill Dew Point Humidity Pressure Visibility Wind Dir Wind Speed Gust Speed Precip Events Conditions
12:15 AM 26.6 °F 19.1 °F 15.8 °F 64% 30.27 in 10.0 mi SE 6.9 mph - N/A   Unknown
12:35 AM 24.8 °F 15.3 °F 15.8 °F 69% 30.26 in 10.0 mi SSE 9.2 mph - N/A   Unknown
12:55 AM 26.6 °F 17.5 °F 15.8 °F 64% 30.26 in 10.0 mi SSE 9.2 mph - N/A   Unknown
1:15 AM 26.6 °F 17.5 °F 15.8 °F 64% 30.26 in 10.0 mi SE 9.2 mph - N/A   Unknown
1:35 AM 26.6 °F 19.1 °F 15.8 °F 64% 30.27 in 10.0 mi ESE 6.9 mph - N/A   Unknown
1:55 AM 24.8 °F 17.9 °F 15.8 °F 69% 30.27 in 10.0 mi East 5.8 mph - N/A   Unknown
2:15 AM 24.8 °F 17.9 °F 15.8 °F 69% 30.27 in 10.0 mi East 5.8 mph - N/A   Unknown
2:35 AM 26.6 °F 22.6 °F 15.8 °F 64% 30.27 in 10.0 mi NE 3.5 mph - N/A   Unknown
2:55 AM 26.6 °F - 15.8 °F 64% 30.27 in 10.0 mi Calm Calm - N/A   Unknown
3:15 AM 24.8 °F 20.5 °F 15.8 °F 69% 30.27 in 10.0 mi SSE 3.5 mph - N/A   Unknown
3:35 AM 24.8 °F 20.5 °F 15.8 °F 69% 30.26 in 10.0 mi SSE 3.5 mph - N/A   Unknown
3:55 AM 23.0 °F 18.4 °F 15.8 °F 74% 30.26 in 10.0 mi South 3.5 mph - N/A   Unknown
4:15 AM 23.0 °F 14.7 °F 15.8 °F 74% 30.25 in 10.0 mi South 6.9 mph - N/A   Unknown
4:35 AM 23.0 °F 13.9 °F 15.8 °F 74% 30.24 in 10.0 mi South 8.1 mph - N/A   Unknown
4:55 AM 23.0 °F 13.1 °F 15.8 °F 74% 30.24 in 10.0 mi South 9.2 mph - N/A   Unknown
5:15 AM 24.8 °F 19.1 °F 15.8 °F 69% 30.25 in 10.0 mi SSW 4.6 mph - N/A   Unknown
5:35 AM 23.0 °F - 15.8 °F 74% 30.26 in 10.0 mi Calm Calm - N/A   Unknown
5:55 AM 23.0 °F 17.0 °F 15.8 °F 74% 30.27 in 10.0 mi SSE 4.6 mph - N/A   Unknown
6:15 AM 23.0 °F 17.0 °F 15.8 °F 74% 30.26 in 10.0 mi SSE 4.6 mph - N/A   Unknown
6:35 AM 23.0 °F 17.0 °F 15.8 °F 74% 30.27 in 10.0 mi SSE 4.6 mph - N/A   Unknown
6:55 AM 23.0 °F 18.4 °F 15.8 °F 74% 30.27 in 10.0 mi SSE 3.5 mph - N/A   Unknown
7:15 AM 23.0 °F 15.8 °F 15.8 °F 74% 30.26 in 10.0 mi SE 5.8 mph - N/A   Unknown
7:55 AM 23.0 °F 15.8 °F 15.8 °F 74% 30.26 in 10.0 mi South 5.8 mph - N/A   Clear
8:15 AM 24.8 °F 16.1 °F 17.6 °F 74% 30.25 in 10.0 mi South 8.1 mph - N/A   Clear
8:35 AM 26.6 °F 18.2 °F 17.6 °F 69% 30.25 in 10.0 mi South 8.1 mph - N/A   Clear
8:55 AM 30.2 °F 21.3 °F 19.4 °F 64% 30.24 in 10.0 mi South 10.4 mph - N/A   Clear
9:15 AM 32.0 °F 24.2 °F 17.6 °F 55% 30.25 in 10.0 mi South 9.2 mph - N/A   Clear
9:55 AM 35.6 °F 27.5 °F 19.4 °F 52% 30.26 in 10.0 mi South 11.5 mph - N/A   Clear
10:15 AM 37.4 °F 28.9 °F 19.4 °F 48% 30.27 in 10.0 mi South 13.8 mph - N/A   Clear
10:35 AM 39.2 °F 31.6 °F 19.4 °F 45% 30.28 in 10.0 mi SSW 12.7 mph - N/A   Clear
10:55 AM 41.0 °F 33.1 °F 19.4 °F 42% 30.27 in 10.0 mi South 15.0 mph - N/A   Clear
11:15 AM 42.8 °F 35.4 °F 21.2 °F 42% 30.26 in 10.0 mi SSW 15.0 mph - N/A   Clear
11:35 AM 44.6 °F 37.8 °F 23.0 °F 43% 30.25 in 10.0 mi SSW 15.0 mph - N/A   Clear
11:55 AM 46.4 °F 40.4 °F 23.0 °F 40% 30.23 in 10.0 mi SSW 13.8 mph 20.7 mph N/A   Clear
12:15 PM 46.4 °F 40.1 °F 23.0 °F 40% 30.23 in 10.0 mi SSW 15.0 mph 20.7 mph N/A   Clear
12:55 PM 50.0 °F - 23.0 °F 35% 30.20 in 10.0 mi SSW 12.7 mph 21.9 mph N/A   Clear
1:15 PM 51.8 °F - 24.8 °F 35% 30.19 in 10.0 mi SW 13.8 mph 17.3 mph N/A   Clear
1:35 PM 53.6 °F - 24.8 °F 33% 30.18 in 10.0 mi SSW 12.7 mph 18.4 mph N/A   Clear
1:55 PM 53.6 °F - 24.8 °F 33% 30.17 in 10.0 mi SSW 12.7 mph - N/A   Clear
2:15 PM 53.6 °F - 24.8 °F 33% 30.16 in 10.0 mi SSW 9.2 mph - N/A   Clear
2:35 PM 55.4 °F - 26.6 °F 33% 30.16 in 10.0 mi SW 9.2 mph - N/A   Clear
2:55 PM 55.4 °F - 26.6 °F 33% 30.16 in 10.0 mi WSW 11.5 mph 18.4 mph N/A   Clear
3:15 PM 55.4 °F - 28.4 °F 36% 30.16 in 10.0 mi SSW 11.5 mph 18.4 mph N/A   Clear
3:35 PM 55.4 °F - 28.4 °F 36% 30.15 in 10.0 mi SSW 12.7 mph 18.4 mph N/A   Clear
3:55 PM 55.4 °F - 28.4 °F 36% 30.15 in 10.0 mi SSW 11.5 mph - N/A   Clear
4:15 PM 55.4 °F - 30.2 °F 38% 30.15 in 10.0 mi SW 10.4 mph 17.3 mph N/A   Clear
4:35 PM 55.4 °F - 30.2 °F 38% 30.15 in 10.0 mi SSW 11.5 mph 20.7 mph N/A   Clear
4:55 PM 55.4 °F - 32.0 °F 41% 30.15 in 10.0 mi SSW 11.5 mph - N/A   Clear
5:15 PM 53.6 °F - 32.0 °F 44% 30.16 in 10.0 mi SSW 9.2 mph - N/A   Clear
5:35 PM 50.0 °F - 32.0 °F 50% 30.16 in 10.0 mi SSW 6.9 mph - N/A   Clear
5:55 PM 48.2 °F - 32.0 °F 54% 30.17 in 10.0 mi South 5.8 mph - N/A   Clear
6:15 PM 46.4 °F 42.4 °F 32.0 °F 57% 30.17 in 10.0 mi South 8.1 mph - N/A   Clear
6:35 PM 44.6 °F 40.7 °F 32.0 °F 61% 30.18 in 10.0 mi South 6.9 mph - N/A   Clear
6:55 PM 44.6 °F 40.7 °F 32.0 °F 61% 30.18 in 10.0 mi South 6.9 mph - N/A   Unknown
7:15 PM 42.8 °F 38.6 °F 32.0 °F 66% 30.18 in 10.0 mi SSE 6.9 mph - N/A   Unknown
7:35 PM 42.8 °F 38.6 °F 30.2 °F 61% 30.18 in 10.0 mi SSE 6.9 mph - N/A   Unknown
7:55 PM 41.0 °F 37.1 °F 32.0 °F 70% 30.18 in 10.0 mi South 5.8 mph - N/A   Unknown
8:15 PM 41.0 °F 36.4 °F 32.0 °F 70% 30.18 in 10.0 mi SE 6.9 mph - N/A   Unknown
8:35 PM 42.8 °F 38.0 °F 32.0 °F 66% 30.18 in 10.0 mi SE 8.1 mph - N/A   Unknown
8:55 PM 41.0 °F 35.8 °F 32.0 °F 70% 30.19 in 10.0 mi SE 8.1 mph - N/A   Unknown
9:15 PM 41.0 °F 35.8 °F 32.0 °F 70% 30.19 in 10.0 mi SE 8.1 mph - N/A   Unknown
9:35 PM 39.2 °F 33.0 °F 30.2 °F 70% 30.20 in 10.0 mi SSE 9.2 mph - N/A   Unknown
9:55 PM 39.2 °F 33.0 °F 30.2 °F 70% 30.20 in 10.0 mi SSE 9.2 mph - N/A   Unknown
10:15 PM 39.2 °F 34.2 °F 30.2 °F 70% 30.21 in 10.0 mi SSE 6.9 mph - N/A   Unknown
10:55 PM 41.0 °F 37.1 °F 32.0 °F 70% 30.22 in 10.0 mi SE 5.8 mph - N/A   Unknown
11:15 PM 39.2 °F 34.2 °F 32.0 °F 75% 30.22 in 10.0 mi SE 6.9 mph - N/A   Unknown
11:55 PM 39.2 °F 33.6 °F 32.0 °F 75% 30.21 in 10.0 mi SSE 8.1 mph - N/A   Unknown